Volver al catálogo

STARLINK-34190

ActivoComunicacionesVLEO
NORAD 64078·PAYLOAD·🇺🇸 United States

Lanzado May 21, 2025 desde Cape Canaveral Space Force Station

Loading…

Próximos Pases (próximas 24 horas)

TLE

ActualizadoSource: CelesTrak SupGP

Época: Sep 14, 2026, 21:34 UTC

1 64078C 25107Q   26257.89909722  .00017852  00000+0  64654-3 0  2575
2 64078  43.0027 212.9427 0001217 258.6699 265.9471 15.27572559    19

Sigue STARLINK-34190 en tiempo real con AllMySat

Download on the App Store